| time (UTC) | temp F | wind direction | speed knots | gust knots | rain 1hr in | rain 24hr in | rain mn in | humidity % | barometer mb |
| 20260506145017 | 75 | 45 | 1.7 | 4.3 | 0.00 | 0.00 | 0.00 | 93 | 1009.5 |
| 20260506144017 | 75 | 46 | 1.7 | 5.2 | 0.00 | 0.00 | 0.00 | 93 | 1009.5 |
| 20260506143019 | 75 | 28 | 1.7 | 2.6 | 0.00 | 0.00 | 0.00 | 93 | 1009.6 |
| 20260506142018 | 75 | 76 | 2.6 | 5.2 | 0.00 | 0.00 | 0.00 | 93 | 1009.1 |
| 20260506141018 | 75 | 85 | 1.7 | 4.3 | 0.00 | 0.00 | 0.00 | 93 | 1009.0 |
| 20260506140018 | 75 | 130 | 2.6 | 5.2 | 0.00 | 0.00 | 0.00 | 93 | 1008.8 |
| 20260506135018 | 75 | 130 | 1.7 | 3.5 | 0.00 | 0.00 | 0.00 | 94 | 1008.6 |
| 20260506134015 | 75 | 109 | 2.6 | 5.2 | 0.00 | 0.00 | 0.00 | 94 | 1008.4 |
| 20260506133015 | 74 | 110 | 3.5 | 6.1 | 0.00 | 0.00 | 0.00 | 94 | 1008.3 |
| 20260506132016 | 74 | 115 | 2.6 | 5.2 | 0.00 | 0.00 | 0.00 | 94 | 1008.3 |
| 20260506131017 | 74 | 130 | 2.6 | 5.2 | 0.00 | 0.00 | 0.00 | 95 | 1008.3 |
| 20260506130036 | 74 | 126 | 2.6 | 4.3 | 0.00 | 0.00 | 0.00 | 95 | 1008.2 |
| 20260506125016 | 74 | 126 | 1.7 | 4.3 | 0.00 | 0.00 | 0.00 | 95 | 1008.2 |
| 20260506124017 | 74 | 163 | 1.7 | 3.5 | 0.00 | 0.00 | 0.00 | 95 | 1008.3 |
| 20260506123017 | 74 | 145 | 2.6 | 4.3 | 0.00 | 0.00 | 0.00 | 95 | 1008.3 |
| 20260506122037 | 74 | 148 | 2.6 | 5.2 | 0.00 | 0.00 | 0.00 | 95 | 1008.2 |
| 20260506121017 | 74 | 148 | 2.6 | 5.2 | 0.00 | 0.00 | 0.00 | 95 | 1008.1 |
| 20260506120057 | 74 | 147 | 3.5 | 7.0 | 0.00 | 0.00 | 0.00 | 95 | 1008.0 |
| 20260506115017 | 74 | 143 | 1.7 | 5.2 | 0.00 | 0.00 | 0.00 | 95 | 1008.0 |
| 20260506114017 | 74 | 182 | 4.3 | 6.1 | 0.00 | 0.00 | 0.00 | 95 | 1008.0 |
| 20260506113018 | 74 | 160 | 1.7 | 3.5 | 0.00 | 0.00 | 0.00 | 95 | 1008.0 |
| 20260506112018 | 74 | 178 | 2.6 | 5.2 | 0.00 | 0.00 | 0.00 | 95 | 1007.9 |
| 20260506111018 | 74 | 172 | 2.6 | 4.3 | 0.00 | 0.00 | 0.00 | 95 | 1008.0 |
| 20260506110018 | 74 | 179 | 3.5 | 5.2 | 0.00 | 0.00 | 0.00 | 95 | 1007.9 |
| 20260506105035 | 74 | 183 | 3.5 | 5.2 | 0.00 | 0.00 | 0.00 | 94 | 1007.8 |
| 20260506104055 | 74 | 178 | 1.7 | 4.3 | 0.00 | 0.00 | 0.00 | 94 | 1007.9 |
| 20260506103035 | 74 | 185 | 2.6 | 5.2 | 0.00 | 0.00 | 0.00 | 94 | 1007.8 |
| 20260506102056 | 74 | 186 | 3.5 | 5.2 | 0.00 | 0.00 | 0.00 | 94 | 1007.8 |
| 20260506101016 | 74 | 193 | 5.2 | 7.8 | 0.00 | 0.00 | 0.00 | 94 | 1007.8 |
| 20260506100016 | 74 | 182 | 3.5 | 4.3 | 0.00 | 0.00 | 0.00 | 93 | 1007.7 |
| 20260506095037 | 75 | 192 | 3.5 | 6.1 | 0.00 | 0.00 | 0.00 | 93 | 1007.6 |
| 20260506094016 | 75 | 193 | 4.3 | 6.1 | 0.00 | 0.00 | 0.00 | 93 | 1007.5 |
| 20260506093017 | 75 | 183 | 4.3 | 7.0 | 0.00 | 0.00 | 0.00 | 93 | 1007.3 |
| 20260506092017 | 75 | 189 | 6.1 | 9.6 | 0.00 | 0.00 | 0.00 | 92 | 1007.2 |
| 20260506091017 | 75 | 172 | 4.3 | 7.8 | 0.00 | 0.00 | 0.00 | 92 | 1007.5 |
| 20260506090017 | 75 | 185 | 5.2 | 8.7 | 0.00 | 0.00 | 0.00 | 92 | 1007.6 |
| 20260506085017 | 75 | 187 | 4.3 | 7.8 | 0.00 | 0.00 | 0.00 | 91 | 1007.6 |
| 20260506084017 | 75 | 188 | 5.2 | 7.8 | 0.00 | 0.00 | 0.00 | 91 | 1007.5 |
| 20260506083017 | 75 | 189 | 3.5 | 5.2 | 0.00 | 0.00 | 0.00 | 91 | 1007.6 |
| 20260506082019 | 75 | 179 | 4.3 | 7.0 | 0.00 | 0.00 | 0.00 | 90 | 1007.4 |
| 20260506081018 | 75 | 184 | 3.5 | 5.2 | 0.00 | 0.00 | 0.00 | 90 | 1007.5 |
| 20260506073016 | 76 | 191 | 5.2 | 7.8 | 0.00 | 0.00 | 0.00 | 89 | 1007.8 |
| 20260506072036 | 76 | 187 | 5.2 | 7.8 | 0.00 | 0.00 | 0.00 | 89 | 1008.0 |
| 20260506071036 | 76 | 183 | 5.2 | 8.7 | 0.00 | 0.00 | 0.00 | 90 | 1008.1 |
| 20260506062017 | 76 | 191 | 3.5 | 5.2 | 0.00 | 0.00 | 0.00 | 90 | 1008.3 |
| 20260506061037 | 76 | 177 | 3.5 | 5.2 | 0.00 | 0.00 | 0.00 | 90 | 1008.2 |
| 20260506051038 | 76 | 169 | 4.3 | 8.7 | 0.00 | 0.00 | 0.00 | 89 | 1008.1 |
| 20260506045016 | 76 | 153 | 4.3 | 7.8 | 0.00 | 0.00 | 0.00 | 89 | 1008.1 |
| 20260506044015 | 76 | 141 | 3.5 | 7.0 | 0.00 | 0.00 | 0.00 | 89 | 1008.2 |
| 20260506043016 | 76 | 166 | 2.6 | 5.2 | 0.00 | 0.00 | 0.00 | 89 | 1008.1 |
| 20260506042016 | 76 | 161 | 3.5 | 7.0 | 0.00 | 0.00 | 0.00 | 89 | 1008.1 |
| 20260506041016 | 77 | 175 | 3.5 | 7.0 | 0.00 | 0.00 | 0.00 | 89 | 1007.9 |
| 20260506040016 | 77 | 166 | 3.5 | 6.1 | 0.00 | 0.00 | 0.00 | 88 | 1007.9 |
| 20260506035016 | 77 | 148 | 4.3 | 8.7 | 0.00 | 0.00 | 0.00 | 88 | 1007.9 |
| 20260506034017 | 77 | 157 | 3.5 | 7.0 | 0.00 | 0.00 | 0.00 | 88 | 1007.6 |
| 20260506033017 | 77 | 159 | 4.3 | 7.0 | 0.00 | 0.00 | 0.00 | 87 | 1007.4 |
| 20260506032017 | 77 | 158 | 3.5 | 6.1 | 0.00 | 0.00 | 0.00 | 87 | 1007.4 |
| 20260506031017 | 78 | 158 | 4.3 | 8.7 | 0.00 | 0.00 | 0.00 | 86 | 1007.2 |
| 20260506030037 | 78 | 151 | 3.5 | 7.8 | 0.00 | 0.00 | 0.00 | 86 | 1007.0 |
| 20260506025018 | 78 | 146 | 3.5 | 7.8 | 0.00 | 0.00 | 0.00 | 85 | 1006.8 |
| 20260506024018 | 79 | 139 | 3.5 | 7.0 | 0.00 | 0.00 | 0.00 | 84 | 1006.7 |
| 20260506023018 | 79 | 149 | 3.5 | 7.8 | 0.00 | 0.00 | 0.00 | 83 | 1006.5 |
| 20260506022018 | 80 | 152 | 4.3 | 9.6 | 0.00 | 0.00 | 0.00 | 82 | 1006.5 |
| 20260506021015 | 80 | 147 | 3.5 | 7.8 | 0.00 | 0.00 | 0.00 | 81 | 1006.3 |
| 20260506020036 | 81 | 162 | 4.3 | 7.8 | 0.00 | 0.00 | 0.00 | 80 | 1006.2 |
| 20260506015016 | 82 | 162 | 3.5 | 10.4 | 0.00 | 0.00 | 0.00 | 78 | 1006.2 |
| 20260506014016 | 82 | 138 | 3.5 | 7.0 | 0.00 | 0.00 | 0.00 | 76 | 1005.9 |
| 20260506013016 | 82 | 145 | 1.7 | 6.1 | 0.00 | 0.00 | 0.00 | 74 | 1005.9 |
| 20260506012016 | 83 | 128 | 2.6 | 5.2 | 0.00 | 0.00 | 0.00 | 74 | 1005.7 |
| 20260506011016 | 83 | 105 | 2.6 | 3.5 | 0.00 | 0.00 | 0.00 | 73 | 1005.7 |
| 20260506010017 | 83 | 135 | 3.5 | 7.0 | 0.00 | 0.00 | 0.00 | 73 | 1005.5 |
| 20260506005017 | 83 | 145 | 1.7 | 4.3 | 0.00 | 0.00 | 0.00 | 73 | 1005.5 |
| 20260506004016 | 83 | 124 | 2.6 | 5.2 | 0.00 | 0.00 | 0.00 | 73 | 1005.5 |
| 20260506003017 | 84 | 146 | 2.6 | 5.2 | 0.00 | 0.00 | 0.00 | 72 | 1005.4 |
| 20260506002017 | 84 | 144 | 1.7 | 4.3 | 0.00 | 0.00 | 0.00 | 71 | 1005.4 |
| 20260506001017 | 84 | 149 | 2.6 | 5.2 | 0.00 | 0.00 | 0.00 | 71 | 1005.3 |
| 20260506000017 | 84 | 169 | 3.5 | 7.0 | 0.00 | 0.00 | 0.00 | 71 | 1005.2 |
| 20260505235018 | 85 | 152 | 4.3 | 7.8 | 0.00 | 0.00 | 0.00 | 70 | 1005.1 |
| 20260505234038 | 84 | 153 | 4.3 | 8.7 | 0.00 | 0.00 | 0.00 | 70 | 1005.0 |
| 20260505233018 | 84 | 185 | 3.5 | 6.1 | 0.00 | 0.00 | 0.00 | 69 | 1004.9 |
| 20260505232018 | 85 | 163 | 4.3 | 6.1 | 0.00 | 0.00 | 0.00 | 69 | 1005.0 |
| 20260505231015 | 85 | 161 | 3.5 | 7.8 | 0.00 | 0.00 | 0.00 | 68 | 1004.8 |
| 20260505230016 | 85 | 177 | 4.3 | 7.8 | 0.00 | 0.00 | 0.00 | 69 | 1004.8 |
| 20260505225036 | 84 | 192 | 4.3 | 8.7 | 0.00 | 0.00 | 0.00 | 69 | 1005.0 |
| 20260505224016 | 84 | 151 | 3.5 | 6.1 | 0.00 | 0.00 | 0.00 | 69 | 1005.1 |
| 20260505223036 | 85 | 177 | 4.3 | 8.7 | 0.00 | 0.00 | 0.00 | 69 | 1005.1 |
| 20260505222016 | 85 | 149 | 2.6 | 7.8 | 0.00 | 0.00 | 0.00 | 69 | 1005.1 |
| 20260505221016 | 85 | 192 | 5.2 | 7.8 | 0.00 | 0.00 | 0.00 | 69 | 1005.1 |
| 20260505220036 | 84 | 198 | 4.3 | 7.0 | 0.00 | 0.00 | 0.00 | 69 | 1005.3 |
| 20260505215017 | 84 | 187 | 5.2 | 8.7 | 0.00 | 0.00 | 0.00 | 69 | 1005.4 |
| 20260505214057 | 84 | 156 | 4.3 | 8.7 | 0.00 | 0.00 | 0.00 | 69 | 1005.4 |
| 20260505213017 | 84 | 177 | 4.3 | 7.8 | 0.00 | 0.00 | 0.00 | 70 | 1005.6 |
| 20260505212017 | 83 | 191 | 7.0 | 10.4 | 0.00 | 0.00 | 0.00 | 70 | 1005.8 |
| 20260505211017 | 83 | 174 | 4.3 | 7.8 | 0.00 | 0.00 | 0.00 | 71 | 1005.9 |
| 20260505210038 | 83 | 180 | 5.2 | 8.7 | 0.00 | 0.00 | 0.00 | 69 | 1006.1 |
| 20260505205018 | 83 | 199 | 6.1 | 9.6 | 0.00 | 0.00 | 0.00 | 70 | 1006.2 |
| 20260505204018 | 82 | 193 | 5.2 | 8.7 | 0.00 | 0.00 | 0.00 | 71 | 1006.4 |
| 20260505203018 | 82 | 191 | 4.3 | 9.6 | 0.00 | 0.00 | 0.00 | 72 | 1006.5 |
| 20260505202015 | 82 | 178 | 4.3 | 7.8 | 0.00 | 0.00 | 0.00 | 72 | 1006.7 |
| 20260505201016 | 82 | 184 | 4.3 | 7.0 | 0.00 | 0.00 | 0.00 | 73 | 1006.8 |
| 20260505200055 | 81 | 212 | 5.2 | 8.7 | 0.00 | 0.00 | 0.00 | 74 | 1006.7 |
| 20260505195016 | 81 | 198 | 6.1 | 11.3 | 0.00 | 0.00 | 0.00 | 74 | 1006.9 |
| 20260505194036 | 81 | 193 | 4.3 | 7.0 | 0.00 | 0.00 | 0.00 | 75 | 1007.0 |
| 20260505193016 | 80 | 167 | 3.5 | 5.2 | 0.00 | 0.00 | 0.00 | 77 | 1007.1 |
| 20260505170515 | 75 | 197 | 6.1 | 10.4 | 0.00 | 0.00 | 0.00 | 85 | 1008.4 |
| 20260505165516 | 74 | 204 | 4.3 | 9.6 | 0.00 | 0.00 | 0.00 | 87 | 1008.3 |
| 20260505164537 | 74 | 224 | 5.2 | 8.7 | 0.00 | 0.00 | 0.00 | 88 | 1008.4 |
| 20260505163517 | 74 | 224 | 7.0 | 9.6 | 0.00 | 0.00 | 0.00 | 88 | 1008.4 |
| 20260505162517 | 74 | 197 | 7.0 | 10.4 | 0.00 | 0.00 | 0.00 | 89 | 1008.4 |
| 20260505161537 | 73 | 194 | 7.8 | 13.0 | 0.00 | 0.00 | 0.00 | 89 | 1008.3 |
| 20260505160538 | 73 | 212 | 7.8 | 11.3 | 0.00 | 0.00 | 0.00 | 89 | 1008.3 |
| 20260505152515 | 72 | 205 | 7.0 | 10.4 | 0.00 | 0.00 | 0.00 | 91 | 1008.3 |
| 20260505151515 | 72 | 204 | 5.2 | 7.8 | 0.00 | 0.00 | 0.00 | 91 | 1008.3 |
| 20260505150515 | 71 | 221 | 5.2 | 8.7 | 0.00 | 0.00 | 0.00 | 92 | 1008.4 |